Welcome to the New NWS' Forecast!
Most changes are behind the scenes, but click here for differences you might notice.

Regional Weather Roundup (RWR)

Issued by Gray - Portland, ME (GYX)

                            
000
ASUS41 KGYX 151105
RWRGYX
WEATHER ROUNDUP FOR MAINE AND NEW HAMPSHIRE
NATIONAL WEATHER SERVICE GRAY ME
700 AM EDT WED AUG 15 2018

MEZ002-005-006-010-012-015-018-020-021-024-026-027-029-151200-
MAINE
  
CITY           SKY/WX    TMP DP  RH WIND       PRES   REMARKS
PORTLAND       CLOUDY    70  69  97 W3        29.83R FOG              
SANFORD        CLOUDY    69  68  96 W3        29.83R                  
BAR HARBOR     LGT RAIN  68  67  96 SW5       29.83S VSB 1/2          
WISCASSET      CLOUDY    70  70 100 CALM      29.83S FOG              
ROCKLAND       FOG       66  66 100 S3        29.82R VSB 1/4          
FRYEBURG       CLOUDY    69  69 100 CALM      29.83R                  
LEWISTONAUBURN CLOUDY    69  69 100 CALM      29.83R                  
AUGUSTA        CLOUDY    69  68  96 W3        29.82S                  
WATERVILLE     FOG       70  68  94 CALM      29.80S VSB 3/4          
BANGOR         CLOUDY    71  69  93 SW3       29.83R                  
GREENVILLE       N/A     67  66  97 SE5       29.82S                  
MILLINOCKET    PTSUNNY   70  67  90 VRB5      29.82S                  
HOULTON        CLOUDY    70  68  93 SW8       29.79S                  
PRESQUE ISLE   PTSUNNY   70  67  90 CALM      29.79R                  
FRENCHVILLE    CLOUDY    69  65  86 S7        29.77R                  
CARIBOU        PTSUNNY   71  68  90 SW7       29.77S                  
$$

NHZ002-005-008-009-011-012-014-151200-
NEW HAMPSHIRE
  
CITY           SKY/WX    TMP DP  RH WIND       PRES   REMARKS
PORTSMOUTH     CLOUDY    69  69  99 CALM      29.81R FOG              
ROCHESTER      CLOUDY    69  69 100 CALM      29.82R                  
MANCHESTER     NOT AVBL                                               
CONCORD        CLOUDY    70  68  93 CALM      29.83R FOG              
LACONIA        CLOUDY    68  67  96 W5        29.84R                  
PLYMOUTH       PTSUNNY   65  64  96 CALM      29.84R FOG              
BERLIN         FOG       64  64 100 SE3       29.86R VSB 1/4          
WHITEFIELD     CLOUDY    60  60 100 CALM      29.86R                  
JAFFREY        NOT AVBL                                               
LEBANON        FOG       68  65  90 CALM      29.84R VSB 1            
MT WASHINGTON  FOG       52  52 100 W14         N/A  VSB 1/16         
$$

VTZ005-007-008-151200-
VERMONT
  
CITY           SKY/WX    TMP DP  RH WIND       PRES   REMARKS
ST JOHNSBURY     N/A     65  65 100 MISG      29.83R                  
MONTPELIER     FOG       65  65 100 CALM      29.89R VSB 1/2          
BURLINGTON     LGT RAIN  70  66  87 CALM      29.83R                  
$$

MAZ007-012-024-CTZ003-RIZ002-NYZ038-NYZ072-151200-
SOUTHERN NEW ENGLAND AND NY
  
CITY           SKY/WX    TMP DP  RH WIND       PRES   REMARKS
BOSTON         CLOUDY    73  69  87 SW8       29.82S                  
WORCESTER      FOG       67  66  97 SW5       29.85R VSB 1/2          
NANTUCKET      FAIR      71  71 100 S5        29.85R                  
PROVIDENCE     PTSUNNY   70  69  97 W5        29.83S                  
HARTFORD       PTSUNNY   69  67  93 CALM      29.84R                  
ALBANY         FAIR      68  64  87 CALM      29.85R                  
NEW YORK CITY  FAIR      73  65  75 NW12      29.86R                  
$$

ANZ081-ANZ082-ANZ150-NHZ014-MEZ023>029-151200-
COASTAL MARINE OBSERVATIONS
  
STATION/POSITION TIME  TEMP    WIND        PRES    WAVE
                       AIR SEA DIR/SP/G            HT/PER
                 (UTC) (F)     (DEG/KT/KT) (MB)    (FT/S)
MOUNT DESERT ROC 1000   66     160/ 15/ 16 1010.0R
MATINICUS ROCK   1000   66     170/ 12/ 12 1009.2R
ISLE OF SHOALS   1000   68     180/  2/  2 1009.0R
JEFFREYS LEDGE   1036      69                N/A     2/ 8
$$

.............KEY..............
   WCI - WIND CHILL
   TC  - TEMPERATURE IN CELSIUS
   VSB - VISIBILITY IN MILES
   HX  - HEAT INDEX
   FAIR- INDICATES FEW OR NO CLOUDS BELOW 12,000 FT, WITH NO 
         SIGNIFICANT WEATHER AND/OR OBSTRUCTIONS TO VISIBILITY.


  

925 
ASUS41 KGYX 151105
RWRGYX
WEATHER ROUNDUP FOR MAINE AND NEW HAMPSHIRE
NATIONAL WEATHER SERVICE GRAY ME
700 AM EDT WED AUG 15 2018

MEZ002-005-006-010-012-015-018-020-021-024-026-027-029-151200-
MAINE
  
CITY           SKY/WX    TMP DP  RH WIND       PRES   REMARKS
PORTLAND       CLOUDY    70  69  97 W3        29.83R FOG              
SANFORD        CLOUDY    69  68  96 W3        29.83R                  
BAR HARBOR     LGT RAIN  68  67  96 SW5       29.83S VSB 1/2          
WISCASSET      CLOUDY    70  70 100 CALM      29.83S FOG              
ROCKLAND       FOG       66  66 100 S3        29.82R VSB 1/4          
FRYEBURG       CLOUDY    69  69 100 CALM      29.83R                  
LEWISTONAUBURN CLOUDY    69  69 100 CALM      29.83R                  
AUGUSTA        CLOUDY    69  68  96 W3        29.82S                  
WATERVILLE     FOG       70  68  94 CALM      29.80S VSB 3/4          
BANGOR         CLOUDY    71  69  93 SW3       29.83R                  
GREENVILLE       N/A     67  66  97 SE5       29.82S                  
MILLINOCKET    PTSUNNY   70  67  90 VRB5      29.82S                  
HOULTON        CLOUDY    70  68  93 SW8       29.79S                  
PRESQUE ISLE   PTSUNNY   70  67  90 CALM      29.79R                  
FRENCHVILLE    CLOUDY    69  65  86 S7        29.77R                  
CARIBOU        PTSUNNY   71  68  90 SW7       29.77S                  
$$

NHZ002-005-008-009-011-012-014-151200-
NEW HAMPSHIRE
  
CITY           SKY/WX    TMP DP  RH WIND       PRES   REMARKS
PORTSMOUTH     CLOUDY    69  69  99 CALM      29.81R FOG              
ROCHESTER      CLOUDY    69  69 100 CALM      29.82R                  
MANCHESTER     NOT AVBL                                               
CONCORD        CLOUDY    70  68  93 CALM      29.83R FOG              
LACONIA        CLOUDY    68  67  96 W5        29.84R                  
PLYMOUTH       PTSUNNY   65  64  96 CALM      29.84R FOG              
BERLIN         FOG       64  64 100 SE3       29.86R VSB 1/4          
WHITEFIELD     CLOUDY    60  60 100 CALM      29.86R                  
JAFFREY        NOT AVBL                                               
LEBANON        FOG       68  65  90 CALM      29.84R VSB 1            
MT WASHINGTON  FOG       52  52 100 W14         N/A  VSB 1/16         
$$

VTZ005-007-008-151200-
VERMONT
  
CITY           SKY/WX    TMP DP  RH WIND       PRES   REMARKS
ST JOHNSBURY     N/A     65  65 100 MISG      29.83R                  
MONTPELIER     FOG       65  65 100 CALM      29.89R VSB 1/2          
BURLINGTON     LGT RAIN  70  66  87 CALM      29.83R                  
$$

MAZ007-012-024-CTZ003-RIZ002-NYZ038-NYZ072-151200-
SOUTHERN NEW ENGLAND AND NY
  
CITY           SKY/WX    TMP DP  RH WIND       PRES   REMARKS
BOSTON         CLOUDY    73  69  87 SW8       29.82S                  
WORCESTER      FOG       67  66  97 SW5       29.85R VSB 1/2          
NANTUCKET      FAIR      71  71 100 S5        29.85R                  
PROVIDENCE     PTSUNNY   70  69  97 W5        29.83S                  
HARTFORD       PTSUNNY   69  67  93 CALM      29.84R                  
ALBANY         FAIR      68  64  87 CALM      29.85R                  
NEW YORK CITY  FAIR      73  65  75 NW12      29.86R                  
$$

ANZ081-ANZ082-ANZ150-NHZ014-MEZ023>029-151200-
COASTAL MARINE OBSERVATIONS
  
STATION/POSITION TIME  TEMP    WIND        PRES    WAVE
                       AIR SEA DIR/SP/G            HT/PER
                 (UTC) (F)     (DEG/KT/KT) (MB)    (FT/S)
MOUNT DESERT ROC 1000   66     160/ 15/ 16 1010.0R
MATINICUS ROCK   1000   66     170/ 12/ 12 1009.2R
ISLE OF SHOALS   1000   68     180/  2/  2 1009.0R
JEFFREYS LEDGE   1036      69                N/A     2/ 8
$$

.............KEY..............
   WCI - WIND CHILL
   TC  - TEMPERATURE IN CELSIUS
   VSB - VISIBILITY IN MILES
   HX  - HEAT INDEX
   FAIR- INDICATES FEW OR NO CLOUDS BELOW 12,000 FT, WITH NO 
         SIGNIFICANT WEATHER AND/OR OBSTRUCTIONS TO VISIBILITY.